Regional Weather Roundup
Issued by NWS

Home | Current Version | Previous Version | Graphics & Text | Print | Product List | Glossary On
Versions: 1 2 3 4 5 6 7 8 9 10 11 12 13 14 15 16 17 18 19 20 21 22 23 24 25 26 27 28 29 30 31 32 33 34 35 36 37 38 39 40 41 42 43 44 45 46 47 48 49 50
000
ASUS45 KCYS 052110
RWRWY

WYOMING REGIONAL WEATHER ROUNDUP
NATIONAL WEATHER SERVICE CHEYENNE WY
200 PM MST MON DEC 05 2016

NOTE:  "FAIR" INDICATES FEW OR NO CLOUDS BELOW 12,000 FEET
WITH NO SIGNIFICANT WEATHER AND/OR OBSTRUCTIONS TO VISIBILITY.

WYZ001-052200-
YELLOWSTONE NATIONAL PARK

CITY           SKY/WX    TMP DP  RH WIND       PRES   REMARKS
LK YELLOWSTONE   N/A      7   0  73 W6        29.80R WCI  -3
W YELLOWSTONE  NOT AVBL

$$
WYZ002>013-054>058-071-098>099-052200-
NORTHERN WYOMING

CITY           SKY/WX    TMP DP  RH WIND       PRES   REMARKS
JACKSON        CLOUDY    14  -4  44 W20       29.89R WCI  -3
CODY           CLOUDY    18  11  74 N14       29.86R WCI   4
GREYBULL       PTSUNNY   26   5  40 N23G30    29.88R WCI  11
WORLAND        CLOUDY    24  11  57 NW13G24   29.89R WCI  12
SHERIDAN       PTSUNNY   20  12  71 NW17      29.88R WCI   5
BUFFALO        LGT SNOW  19  11  70 N31G38    29.78S WCI   0
GILLETTE       PTSUNNY   18  13  80 NW18      29.80R WCI   2
HULETT         FLURRIES  21  14  73 NW10G17   29.78R WCI  10
NEWCASTLE      FLURRIES  21  14  73 NW20      29.76R WCI   6

$$
WYZ014>020-022>026-101>103-052200-
CENTRAL WYOMING

CITY           SKY/WX    TMP DP  RH WIND       PRES   REMARKS
BIG PINEY      FAIR      17  -8  32 NW21      29.86S WCI   0
PINEDALE       FAIR      14  -2  48 NW17      29.85R WCI  -3
DUBOIS         CLOUDY    10  -2  56 NW18      29.78R WCI  -8
LANDER         FAIR      24  -7  25 W18G26    29.80R WCI  10
RIVERTON       FAIR      25 -10  21 NW23G32   29.81R WCI  10
CASPER         LGT SNOW  20  15  81 CALM      29.81R
DOUGLAS        LGT SNOW  20  14  77 NW16      29.81R WCI   6

$$
WYZ021-027>030-104>119-052200-
SOUTHERN WYOMING

CITY           SKY/WX    TMP DP  RH WIND       PRES   REMARKS
EVANSTON       FAIR      20 -10  26 W16       29.89F WCI   6
FORT BRIDGER   MOCLDY    23  -2  34 NW12G17   29.92S WCI  11
ROCK SPRINGS   FAIR      18  -1  43 W20G31    29.86F WCI   2
DIXON          CLOUDY    21   1  41 NW16      29.90R WCI   7
RAWLINS        FAIR      20  -3  36 W30G41    29.77S WCI   1
SARATOGA       CLOUDY    19   1  45 W16G25    29.81S WCI   5
LARAMIE        CLOUDY    20  -8  28 W26G40    29.71S WCI   2
CHEYENNE       PTSUNNY   27  -7  22 NW24G38   29.72R WCI  12
TORRINGTON     CLOUDY    27  15  61 NW21G29   29.77R WCI  13
PINE BLUFFS    MOCLDY    32 -13  14 MISG      29.65S VSB 1

$$



USA.gov is the U.S. government's official web portal to all federal, state and local government web resources and services.